Location: Ottawa
(45.4167°N, 75.7000°W)
Time: 20:30:23
(UTC-04:00)

OTV 5 (USA 277) - Pass Details

Date: 10 October 2017
Orbit: 404 x 417 km, 43.0° (Epoch: 07 September)

Event Time Altitude Azimuth Distance (km) Brightness Sun altitude
Rises 19:43:26 0° 224° (SW) 2,346 ? -14.4°
Reaches altitude 10° 19:45:48 10° 210° (SSW) 1,486 ? -14.8°
Maximum altitude 19:48:31 23° 156° (SSE) 936 ? -15.3°
Enters shadow 19:48:51 23° 146° (SE) 947 ? -15.4°
